Location: Kawakawa
(35.3830°S, 174.0670°E)
Time: 18:35:58
(UTC+12:00)

Sich 1 - Pass Details

Date: 15 August 2020
Orbit: 593 x 626 km, 82.5° (Epoch: 25 September)

Event Time Altitude Azimuth Distance (km) Brightness Sun altitude
Rises 18:42:44 0° 176° (S) 2,903 6.4 -10.9°
Reaches altitude 10° 18:45:10 10° 165° (SSE) 1,995 5.4 -11.4°
Maximum altitude 18:49:07 31° 102° (ESE) 1,090 3.8 -12.2°
Drops below altitude 10° 18:53:03 10° 39° (NE) 1,988 5.4 -13.0°
Sets 18:55:28 0° 28° (NNE) 2,890 6.3 -13.5°
